Flag for France Weather past 2 weeks in Mulhouse, France

Now
61 °F

Sunny.


Feels Like: 61 °F
Forecast: 47 / 61 °F
Wind: 2 mph from North

Location: Bale-Mulhouse

Current Time: May 25, 2015 at 9:39:48 AM

Latest Report: May 25, 2015 at 9:00 AM


Visibility: 10 mi

Pressure: 30.01 "Hg

Humidity: 72%

Dew point: 52 °F

Location of MulhouseLocation

Historic Weather in Mulhouse — Graph

°F

Mulhouse temperature yesterday

Maximum temperature yesterday: 68 °F (at 2:30 PM)
Minimum temperature yesterday: 45 °F (at 4:00 AM)
Average temperature yesterday: 58 °F

Past Weeks' High & Low Weather Summary

 TemperatureHumidityPressure
High88 °F (May 12, 4:00 PM)100% (May 11, 4:00 AM)30.36 "Hg (May 11, 4:00 AM)
Low39 °F (May 22, 5:00 AM)24% (May 12, 4:00 PM)29.77 "Hg (May 18, 6:30 PM)
Average59 °F69%30.09 "Hg
* Reported May 10 8:00 AM — May 25 8:00 AM, Mulhouse, Weather by CustomWeather, © 2015

Note: Actual official high and low records may vary slightly from our data, if they occured in-between our weather recording intervals... More about our weather records

Advertising

Mulhouse weather history for previous 24 hours

 ConditionsComfort  
Time TempWeatherWind HumidityBarometerVisibility
8:00 AM
Mon, May 25
57 °FSunny.2 mph88%30.01 "Hg10 mi
7:30 AM55 °FSunny.No wind88%30.01 "Hg10 mi
7:00 AM55 °FSunny.2 mph88%30.01 "Hg10 mi
6:30 AM55 °FClear.2 mph88%30.01 "Hg10 mi
6:00 AM54 °FClear.2 mph94%30.01 "Hg10 mi
5:30 AM55 °FClear.2 mph88%30.01 "Hg10 mi
5:00 AM54 °FClear.2 mph94%30.01 "Hg10 mi
4:30 AM54 °FClear.2 mph94%30.01 "Hg10 mi
4:00 AM55 °FClear.No wind88%30.01 "Hg10 mi
3:30 AM55 °FClear.No wind88%30.01 "Hg10 mi
3:00 AM55 °FClear.No wind88%30.01 "Hg10 mi
2:30 AM55 °FClear.1 mph88%30.04 "Hg10 mi
2:00 AM57 °FClear.2 mph82%30.04 "Hg10 mi
1:30 AM57 °FClear.No wind82%30.04 "Hg10 mi
1:00 AM57 °FClear.No wind82%30.04 "Hg10 mi
12:30 AM59 °FClear.No wind77%30.04 "Hg10 mi
12:00 AM59 °FClear.1 mph77%30.04 "Hg10 mi
11:30 PM
Sun, May 24
59 °FClear.5 mph77%30.04 "Hg10 mi
11:00 PM61 °FClear.1 mph72%30.04 "Hg10 mi
10:30 PM61 °FClear.No wind72%30.04 "Hg10 mi
10:00 PM61 °FSunny.1 mph72%30.04 "Hg10 mi
9:30 PM63 °FSunny.No wind68%30.04 "Hg10 mi
9:00 PM63 °FSunny.2 mph68%30.04 "Hg10 mi
8:30 PM64 °FPartly sunny.2 mph64%30.04 "HgN/A
8:00 PM66 °FPartly sunny.2 mph56%30.04 "HgN/A
7:30 PM66 °FPartly sunny.5 mph52%30.04 "HgN/A
7:00 PM66 °FPartly sunny.5 mph52%30.01 "HgN/A
6:30 PM66 °FPartly sunny.3 mph56%30.01 "HgN/A
6:00 PM66 °FPartly sunny.5 mph56%30.04 "HgN/A
5:30 PM66 °FPartly sunny.6 mph56%30.04 "HgN/A
5:00 PM68 °FPartly sunny.7 mph56%30.04 "HgN/A
4:30 PM66 °FPartly sunny.6 mph56%30.04 "HgN/A
4:00 PM66 °FPartly sunny.6 mph56%30.04 "HgN/A
3:30 PM68 °FPartly sunny.7 mph53%30.04 "HgN/A
3:00 PM66 °FPartly sunny.7 mph60%30.04 "HgN/A
2:30 PM68 °FPartly sunny.5 mph53%30.04 "HgN/A
2:00 PM66 °FPartly sunny.6 mph52%30.04 "HgN/A
1:30 PM66 °FPartly sunny.6 mph56%30.07 "HgN/A
1:00 PM66 °FPartly sunny.3 mph52%30.07 "HgN/A
12:30 PM66 °FPartly sunny.2 mph49%30.04 "HgN/A
12:00 PM66 °FScattered clouds.5 mph56%30.07 "HgN/A
11:30 AM66 °FPassing clouds.3 mph52%30.07 "HgN/A
11:00 AM64 °FPassing clouds.2 mph60%30.07 "HgN/A
10:30 AM63 °FPassing clouds.3 mph64%30.07 "HgN/A
10:00 AM61 °FScattered clouds.3 mph68%30.07 "HgN/A
9:30 AM59 °FPassing clouds.1 mph72%30.07 "HgN/A
9:00 AM57 °FPassing clouds.No wind72%30.07 "HgN/A
Weather by CustomWeather, © 2015

See weather overviewHow to use our weather pages